Weather reports worldwide

Advertisment
St. Athan, United Kingdom (3716): temperature & dewpoint: 21.09.2020 18:00:00 - 27.09.2020 18:00:00 (BST)St. Athan, United Kingdom (3716): temperature -20cm & temperature -100cm: 21.09.2020 18:00:00 - 27.09.2020 18:00:00 (BST)St. Athan, United Kingdom (3716): wind speed & gusts: 21.09.2020 18:00:00 - 27.09.2020 18:00:00 (BST)St. Athan, United Kingdom (3716): wind direction: 21.09.2020 18:00:00 - 27.09.2020 18:00:00 (BST)St. Athan, United Kingdom (3716): reduced air pressure: 21.09.2020 18:00:00 - 27.09.2020 18:00:00 (BST)St. Athan, United Kingdom (3716): visibility: 21.09.2020 18:00:00 - 27.09.2020 18:00:00 (BST)St. Athan, United Kingdom (3716): sunshine duration: 21.09.2020 18:00:00 - 27.09.2020 18:00:00 (BST)St. Athan, United Kingdom (3716): precipitation: 21.09.2020 18:00:00 - 27.09.2020 18:00:00 (BST)
Date & Time tt [°C] td [°C] tt -20cm [°C] tt -100cm [°C] ff [km/h] ff [kn] fx [km/h] fx [kn] dd ppp [hPa] vv [km] sd [min] rr [mm]
27.09.2020 18:00:00 15,0 8,0 - - 29 16 - - WNW - 10 - -
27.09.2020 17:00:00 15,7 7,3 - - 28 15 - - W 1014,9 10 60 0,0
27.09.2020 16:00:00 15,9 6,7 - - 29 16 - - W 1015,2 10 60 0,0
27.09.2020 15:00:00 15,8 6,2 - - 22 12 - - W 1015,5 30 60 0,0
27.09.2020 14:00:00 16,7 4,5 - - 11 6 - - WNW 1015,7 10 60 0,0
27.09.2020 13:00:00 15,9 4,1 - - 11 6 - - NNW 1015,9 10 60 0,0
27.09.2020 12:00:00 14,4 3,5 - - 9 5 - - WSW 1016,0 70 60 0,0
27.09.2020 11:00:00 12,8 4,7 - - 8 4 - - NNW 1016,5 10 60 0,0
27.09.2020 10:00:00 11,6 5,8 - - 11 6 - - N 1016,5 10 60 0,0
27.09.2020 09:00:00 9,9 6,5 - - 11 6 - - W 1016,5 10 60 0,0
27.09.2020 08:00:00 7,7 5,9 - - 4 2 - - SSW 1016,4 45 12 0,0
27.09.2020 07:00:00 7,6 5,5 - - 9 5 - - NW 1016,6 40 0 0,0
27.09.2020 06:00:00 8,3 6,1 - - 13 7 - - WNW 1016,5 40 0 0,0
27.09.2020 05:00:00 8,0 5,4 - - 11 6 - - W 1016,5 50 0 0,0
27.09.2020 04:00:00 8,5 5,7 - - 15 8 - - WNW 1017,0 40 0 0,0
27.09.2020 03:00:00 8,7 5,0 - - 16 9 - - WNW 1017,3 40 0 0,0
27.09.2020 02:00:00 8,8 5,4 - - 18 10 - - NW 1017,6 35 0 0,0
27.09.2020 01:00:00 8,8 4,0 - - 9 5 - - WNW 1017,9 50 - 0,0
27.09.2020 00:00:00 9,2 3,9 - - 11 6 - - WNW 1017,8 55 0 0,0
26.09.2020 23:00:00 9,2 3,6 - - 9 5 - - WNW 1017,6 65 0 0,0
26.09.2020 22:00:00 8,9 3,2 - - 11 6 - - WNW 1017,4 70 0 0,0
26.09.2020 21:00:00 9,9 3,3 - - 13 7 - - NNW 1017,4 70 0 0,0
26.09.2020 20:00:00 10,0 2,8 - - 9 5 - - NW 1017,1 75 0 0,0
26.09.2020 19:00:00 11,1 2,8 - - 11 6 - - N 1016,4 75 42 0,0
26.09.2020 18:00:00 13,1 1,8 - - 16 9 - - N 1015,9 75 60 0,0
26.09.2020 17:00:00 13,7 1,0 - - 21 11 - - N 1015,3 75 60 0,0
26.09.2020 16:00:00 14,2 0,9 - - 24 13 - - N 1014,9 10 60 0,0
26.09.2020 15:00:00 13,7 0,7 - - 26 14 - - N 1014,7 75 60 0,0
26.09.2020 14:00:00 13,7 2,4 - - 18 10 - - N 1014,7 70 60 0,0
26.09.2020 13:00:00 13,0 1,9 - - 15 8 - - N 1015,1 75 54 0,0
26.09.2020 12:00:00 12,0 2,0 - - 21 11 - - NNW 1015,3 10 60 0,0
26.09.2020 11:00:00 11,5 2,2 - - 16 9 - - N 1015,2 75 60 0,0
26.09.2020 10:00:00 10,1 3,7 - - 15 8 - - NW 1014,9 75 60 0,0
26.09.2020 09:00:00 8,2 4,1 - - 8 4 - - NW 1014,7 10 60 0,0
26.09.2020 08:00:00 6,1 3,3 - - 5 3 - - N 1014,5 30 18 0,0
26.09.2020 07:00:00 6,3 3,7 - - 13 7 - - N 1014,0 45 0 0,0
26.09.2020 06:00:00 7,3 3,7 - - 16 9 - - NW 1013,8 50 0 0,0
26.09.2020 05:00:00 6,6 3,2 - - 11 6 - - NW 1014,1 45 0 0,0
26.09.2020 04:00:00 6,5 4,1 - - 11 6 - - NW 1014,1 28 0 0,0
26.09.2020 03:00:00 7,5 4,1 - - 16 9 - - WNW 1014,2 30 0 0,0
26.09.2020 02:00:00 8,0 3,9 - - 15 8 - - WNW 1014,3 40 0 0,0
26.09.2020 01:00:00 8,5 4,8 - - 15 8 - - WNW 1014,5 40 - 0,0
26.09.2020 00:00:00 9,0 5,1 - - 18 10 - - WNW 1014,1 35 0 0,0
25.09.2020 23:00:00 8,8 5,0 - - 16 9 - - NW 1014,4 55 0 0,0
25.09.2020 22:00:00 9,2 5,4 - - 18 10 - - WNW 1014,2 55 0 0,0
25.09.2020 21:00:00 9,3 5,6 - - 18 10 - - WNW 1014,0 65 0 0,0
25.09.2020 20:00:00 10,4 5,9 - - 16 9 - - NW 1014,0 70 0 0,0
25.09.2020 19:00:00 11,6 5,9 - - 22 12 - - NW 1013,0 60 18 0,0
25.09.2020 18:00:00 12,8 4,2 - - 24 13 - - WNW 1012,3 75 42 0,0
25.09.2020 17:00:00 13,9 4,6 - - 26 14 46 25 WNW 1011,7 65 54 0,0
25.09.2020 16:00:00 13,9 5,5 - - 24 13 - - NW 1011,5 10 18 0,0
25.09.2020 15:00:00 13,9 4,7 - - 31 17 48 26 WNW 1010,8 65 42 0,0
25.09.2020 14:00:00 14,5 4,8 - - 31 17 54 29 NW 1010,1 70 54 0,0
25.09.2020 13:00:00 13,9 3,7 - - 28 15 59 32 NW 1009,4 65 48 0,0
25.09.2020 12:00:00 13,2 1,1 - - 37 20 55 30 NW 1009,0 10 60 0,0
25.09.2020 11:00:00 12,5 3,5 - - 26 14 - - NW 1008,7 75 60 0,0
25.09.2020 10:00:00 11,3 3,9 13,7 16,0 29 16 54 29 NW 1007,7 10 60 0,0
25.09.2020 09:00:00 9,5 5,2 - - 18 10 - - NW 1006,6 75 60 0,0
25.09.2020 08:00:00 8,5 5,0 - - 16 9 - - NW 1005,3 75 18 0,0
25.09.2020 07:00:00 7,0 4,4 - - 11 6 - - NW 1004,3 75 0 0,0
25.09.2020 06:00:00 7,0 4,2 - - 16 9 - - NW 1002,7 75 0 0,0
25.09.2020 05:00:00 6,4 3,9 - - 11 6 - - NNW 1001,6 75 0 0,0
25.09.2020 04:00:00 7,0 4,0 - - 13 7 - - WNW 1000,4 75 0 0,0
25.09.2020 03:00:00 6,9 3,9 - - 9 5 - - WNW 999,3 75 0 0,0
25.09.2020 02:00:00 7,8 4,4 - - 15 8 - - NW 998,4 75 0 0,0
25.09.2020 01:00:00 8,2 5,1 - - 16 9 - - NW 997,6 75 - 0,0
25.09.2020 00:00:00 8,9 5,2 - - 13 7 - - NNW 996,1 75 0 0,0
24.09.2020 23:00:00 8,7 5,9 - - 15 8 - - N 994,8 75 0 0,0
24.09.2020 22:00:00 9,4 6,4 - - 16 9 - - N 993,3 60 0 0,0
24.09.2020 21:00:00 10,6 5,5 - - 8 4 - - SE 992,3 60 0 0,0
24.09.2020 20:00:00 10,7 5,9 - - 11 6 - - S 991,1 55 0 0,2
24.09.2020 19:00:00 12,0 5,2 - - 15 8 - - SSE 990,8 28 0 0,0
24.09.2020 18:00:00 12,0 5,2 - - 11 6 - - S 990,9 55 0 0,0
24.09.2020 17:00:00 12,7 4,8 - - 13 7 - - SW 991,4 70 30 0,0
24.09.2020 16:00:00 13,7 5,2 - - 18 10 - - SW 991,8 75 60 0,0
24.09.2020 15:00:00 13,4 5,6 - - 21 11 - - SW 992,2 65 12 0,0
24.09.2020 14:00:00 13,1 7,2 - - 9 5 - - SW 993,0 40 36 0,0
24.09.2020 13:00:00 12,9 7,0 - - 29 16 - - SW 993,3 40 30 0,0
24.09.2020 12:00:00 12,1 5,8 - - 28 15 46 25 SW 993,3 10 6 0,0
24.09.2020 11:00:00 12,0 7,2 - - 22 12 52 28 SW 993,9 40 36 0,0
24.09.2020 10:00:00 11,2 6,8 15,0 16,2 34 18 - - SSW 993,8 10 18 0,0
24.09.2020 09:00:00 10,5 5,9 - - 26 14 55 30 SW 993,9 55 0 0,0
24.09.2020 08:00:00 10,8 7,1 - - 26 14 48 26 SW 993,8 40 0 0,2
24.09.2020 07:00:00 11,4 7,3 - - 28 15 55 30 SW 993,7 35 0 0,0
24.09.2020 06:00:00 10,9 6,5 - - 28 15 61 33 WSW 993,7 40 0 1,6
24.09.2020 05:00:00 11,5 9,2 - - 28 15 54 29 WSW 993,9 17 0 2,2
24.09.2020 04:00:00 11,4 8,8 - - 22 12 - - SSW 994,8 12 0 0,4
24.09.2020 03:00:00 11,0 7,7 - - 16 9 - - S 996,3 75 0 0,0
24.09.2020 02:00:00 11,5 7,4 - - 21 11 - - SSW 997,5 70 0 0,0
24.09.2020 01:00:00 11,3 8,1 - - 15 8 - - SW 998,3 75 - 0,0
24.09.2020 00:00:00 8,2 7,1 - - 5 3 - - E 999,3 55 0 0,2
23.09.2020 23:00:00 9,5 7,8 - - 4 2 - - NW 999,9 40 0 0,0
23.09.2020 22:00:00 9,7 8,5 - - 9 5 - - WNW 1000,4 22 0 0,6
23.09.2020 21:00:00 9,6 8,5 - - 8 4 - - NW 1000,4 65 0 0,0
23.09.2020 20:00:00 9,7 8,0 - - 11 6 - - NW 1000,1 40 0 0,6
23.09.2020 19:00:00 10,0 7,1 - - 28 15 48 26 NW 1000,1 9 0 1,2
23.09.2020 18:00:00 11,9 9,7 - - 15 8 - - WNW 999,3 70 0 0,0
23.09.2020 17:00:00 14,0 8,1 - - 16 9 - - W 999,0 75 0 0,0
23.09.2020 16:00:00 14,5 9,0 - - 22 12 - - W 999,0 70 12 0,0
23.09.2020 15:00:00 15,7 8,6 - - 22 12 - - W 999,4 75 12 0,0
23.09.2020 14:00:00 15,5 10,3 - - 21 11 - - W 999,7 75 18 0,0
23.09.2020 13:00:00 15,1 11,1 - - 24 13 - - WNW 1000,1 75 6 0,0
23.09.2020 12:00:00 14,4 11,6 - - 18 10 - - WNW 1000,1 50 6 0,0
23.09.2020 11:00:00 13,7 12,7 - - 16 9 - - W 1000,2 10 6 0,2
23.09.2020 10:00:00 13,8 12,8 16,7 16,2 22 12 - - W 999,9 8 0 0,6
23.09.2020 09:00:00 14,4 13,6 - - 22 12 - - SW 999,6 9 0 0,4
23.09.2020 08:00:00 14,1 12,3 - - 11 6 - - SSW 1000,0 40 0 0,2
23.09.2020 07:00:00 14,3 12,9 - - 13 7 - - SW 1000,2 17 0 1,2
23.09.2020 06:00:00 15,1 12,1 - - 18 10 - - WSW 1000,7 50 0 0,0
23.09.2020 05:00:00 15,3 12,5 - - 16 9 - - SW 1001,0 50 0 0,0
23.09.2020 04:00:00 15,1 13,1 - - 16 9 - - WSW 1001,6 45 0 0,0
23.09.2020 03:00:00 15,3 13,4 - - 16 9 - - WSW 1002,2 60 0 0,4
23.09.2020 02:00:00 15,3 13,7 - - 13 7 - - WSW 1002,9 5 0 0,0
23.09.2020 01:00:00 15,8 13,5 - - 13 7 - - WSW 1003,3 30 - 0,0
23.09.2020 00:00:00 15,6 13,5 - - 13 7 - - WSW 1003,6 28 0 0,0
22.09.2020 23:00:00 15,3 13,7 - - 11 6 - - WSW 1004,3 20 0 0,0
22.09.2020 22:00:00 14,9 13,2 - - 13 7 - - WSW 1004,8 21 0 0,0
22.09.2020 21:00:00 15,9 13,7 - - 13 7 - - WSW 1005,3 20 0 0,0
22.09.2020 20:00:00 15,8 13,9 - - 11 6 - - W 1005,6 21 0 0,0
22.09.2020 19:00:00 15,8 13,9 - - 15 8 - - W 1005,8 17 0 0,0
22.09.2020 18:00:00 16,1 14,0 - - 16 9 - - W 1006,2 18 0 0,0
22.09.2020 17:00:00 16,2 14,3 - - 15 8 - - W 1006,8 8 0 0,0
22.09.2020 16:00:00 16,5 13,4 - - 8 4 - - W 1007,4 13 0 0,0
22.09.2020 15:00:00 16,8 13,1 - - 9 5 - - WSW 1008,1 15 6 0,0
22.09.2020 14:00:00 16,2 13,3 - - 15 8 - - WSW 1008,7 11 0 0,0
22.09.2020 13:00:00 16,2 13,9 - - 15 8 - - W 1009,2 16 0 0,0
22.09.2020 12:00:00 18,2 12,9 - - 4 2 - - SSW 1009,2 26 36 0,0
22.09.2020 11:00:00 16,7 14,6 - - 8 4 - - W 1010,0 12 0 0,0
22.09.2020 10:00:00 16,0 15,3 16,7 16,2 8 4 - - W 1010,6 13 0 0,0
22.09.2020 09:00:00 14,9 14,8 - - 2 1 - - W 1011,0 13 0 0,0
22.09.2020 08:00:00 13,0 13,0 - - 2 1 - - NNE 1011,0 8 0 0,0
22.09.2020 07:00:00 12,3 12,2 - - 5 3 - - NE 1011,4 5 0 0,0
22.09.2020 06:00:00 12,2 12,1 - - 4 2 - - NNE 1011,8 0,1 0 0,0
22.09.2020 05:00:00 12,7 12,6 - - 4 2 - - N 1012,3 0,1 0 0,0
22.09.2020 04:00:00 13,1 12,9 - - 5 3 - - WNW 1012,8 0,6 0 0,0
22.09.2020 03:00:00 13,2 13,0 - - 5 3 - - NNW 1013,4 0,4 0 0,0
22.09.2020 02:00:00 13,8 13,4 - - 5 3 - - NNW 1014,1 4,8 0 0,0
22.09.2020 01:00:00 14,2 13,4 - - 5 3 - - W 1014,7 12 - 0,0
22.09.2020 00:00:00 14,5 13,3 - - 4 2 - - WNW 1015,2 16 0 0,0
21.09.2020 23:00:00 15,1 13,2 - - 5 3 - - WNW 1015,5 18 0 0,0
21.09.2020 22:00:00 15,3 13,2 - - 8 4 - - NW 1015,7 24 0 0,0
21.09.2020 21:00:00 16,8 8,7 - - 8 4 - - WNW 1015,7 45 0 0,0
21.09.2020 20:00:00 16,3 10,1 - - 9 5 - - W 1015,8 40 0 0,0
21.09.2020 19:00:00 18,6 11,7 - - 9 5 - - W 1015,7 45 24 0,0
21.09.2020 18:00:00 19,7 11,5 - - 8 4 - - WSW 1015,9 40 60 0,0

tt = temperature
td = dewpoint
tt -20cm = temperature -20cm
tt -100cm = temperature -100cm
ff = wind speed
fx = gusts
dd = wind direction
ppp = reduced air pressure
vv = visibility
sd = sunshine duration
rr = precipitation

Next stations